Location: Gu�tanj
(46.5431°N, 14.9692°E)
Time: 18:29:25
(UTC+00:00)

Lacrosse 4 Rocket - Pass Details

Date: 03 March 2021
Orbit: 537 x 620 km, 68.0° (Epoch: 15 April)

Event Time Altitude Azimuth Distance (km) Brightness Sun altitude
Rises 19:10:30 0° 208° (SSW) 2,818 5.1 -24.8°
Reaches altitude 10° 19:12:42 10° 208° (SSW) 1,934 4.2 -25.2°
Enters shadow 19:14:32 25° 207° (SSW) 1,227 3.1 -25.5°
